Terminal Aerodrome Forecast
Issued by NWS Aberdeen, SD

Home | Current Version | Previous Version | Text Only | Print | Product List | Glossary On
Versions: 1 2 3 4 5 6 7 8 9 10 11 12 13 14 15 16 17 18 19 20 21 22 23 24 25 26 27 28 29 30 31 32 33 34 35 36 37 38 39 40 41 42 43 44 45 46 47 48 49 50
000
FTAK31 PAFA 201138
TAFABR
TAF
PABR 201138Z 2012/2112 07025KT 3SM -SN BR SCT007 OVC012
     FM201500 08022KT 1/2SM SN FG OVC007
     FM202100 05018KT 1 1/2SM -SN BR BKN007 OVC015
     FM210000 05018KT 2SM -SN BR BKN007 OVC015=

USA.gov is the U.S. government's official web portal to all federal, state and local government web resources and services.